Regional Weather Roundup
Issued by NWS Midland/Odessa, TX

Skip options and go directly to product.
Home | Oldest Version | Next Version | Current Version | All | Text Only | Save Text | Print | Product List | Glossary On

Skip product version selection by date and time.   
152
ASUS44 KMAF 270901
RWRMAF
MIDLAND AREA WEATHER ROUNDUP
NATIONAL WEATHER SERVICE MIDLAND TX
400 AM CDT FRI MAR 27 2015

...IN SOUTHWEST TEXAS AND SOUTHEAST NEW MEXICO...

CITY           SKY/WX    TMP DP  RH WIND       PRES   REMARKS
ALPINE         CLEAR     38  32  78 SW8       30.32F WCI  32
ANDREWS        FAIR      48  26  42 SW10      30.20F
ARTESIA        CLEAR     39  25  56 S6        30.19F WCI  35
BIG SPRING     CLEAR     44  30  58 SE6       30.22F
CARLSBAD       CLEAR     43  31  62 CALM      30.18S
DRYDEN           N/A     47  38  71 SW8       30.22F
FORT STOCKTON  CLEAR     47  34  60 S13       30.22F
GUAD PASS      CLEAR     46  26  45 SW18      30.28F WCI  39
HOBBS          CLEAR     39  25  56 SW7       30.21R WCI  34
MARFA          CLEAR     32  28  86 NW5       30.30F WCI  27
MIDLAND AIRPK  CLEAR     51  27  40 SW7       30.21S
MIDLAND INTL   CLEAR     46  30  53 SW8       30.20F
ODESSA         CLEAR     44  28  53 SW5       30.21F
PECOS          CLEAR     39  34  82 S6        30.19F WCI  35
PRESIDIO       FAIR      53  36  51 N7        30.26S
SEMINOLE       CLEAR     40  26  56 W7        30.20F WCI  36
SNYDER         CLEAR     41  28  57 SW8       30.19S WCI  36
WINK           CLEAR     44  32  62 SW7       30.19F
$$
...OTHER STATIONS IN TEXAS...

CITY           SKY/WX    TMP DP  RH WIND       PRES   REMARKS
ABILENE        CLEAR     46  30  53 SW9       30.15F
AMARILLO       CLEAR     42  21  43 W8        30.17F WCI  37
AUSTIN         CLEAR     46  37  71 W6        30.17F
BROWNSVILLE    PTCLDY    59  52  77 NW8       30.18S
CORPUS CHRISTI PTCLDY    54  47  77 N6        30.20S
DALLAS FTW     CLEAR     48  36  63 W9        30.08F
DEL RIO        CLEAR     49  42  77 W3        30.23F
EL PASO        CLEAR     50  29  44 S5        30.23F
HOUSTON INT    CLEAR     52  39  61 NW6       30.12S
LUBBOCK        CLEAR     37  20  50 W7        30.16F WCI  32
SAN ANGELO     CLEAR     41  33  73 W8        30.19F WCI  36
SAN ANTONIO    CLEAR     46  36  68 NW6       30.19F
WACO           CLEAR     39  37  92 SW6       30.13F WCI  35
WICHITA FALLS  NOT AVBL
$$
...OTHER LOCATIONS IN NEW MEXICO...

CITY           SKY/WX    TMP DP  RH WIND       PRES   REMARKS
ALAMAGORDO     PTCLDY    46  19  34 SE7       30.24F
ALBUQUERQUE    CLEAR     47  18  31 CALM      30.26F
CANNON AFB     NOT AVBL
CLOVIS         PTCLDY    39  21  48 W8        30.18F WCI  34
HOLLOMAN AFB   NOT AVBL
ROSWELL        CLEAR     38  27  64 CALM      30.18F
RUIDOSO        MOCLDY    46  14  27 N6        30.30S
SANTA FE       PTCLDY    33  17  51 MISG      30.26F
TRUTH OR CONSE CLEAR     45  20  36 W8        30.25S
TUCUMCARI      CLEAR     40  23  50 SE3       30.16F
$$

USA.gov is the U.S. government's official web portal to all federal, state and local government web resources and services.